When you browse on this site, cookies collect data to enhance your experience and personalize the content and advertising you see.
Visit our Privacy Policy to learn more. By continuing to use the site, you agree to this use of cookies and data.
  • In Hungary
  • List of Countries
  • For 7 days
  • Water Temperature
  • Satellite Maps
  • Weather Map
  • News
  • Weather Widgets
  • user-avatar
    Login

    Hourly Weather Abano Terme

    Today, 15 December, Saturday

    Time Temperature Precipitation Wind Pressure Humidity
    00:00 +1°C° 0 mm 3 mps 763 mmHg 58%
    01:00 +1°C° 0 mm 3 mps 763 mmHg 57%
    02:00 +1°C° 0 mm 3 mps 763 mmHg 56%
    03:00 +1°C° 0 mm 3 mps 763 mmHg 55%
    04:00 0°C° 0 mm 3 mps 763 mmHg 54%
    05:00 +1°C° 0 mm 2 mps 763 mmHg 54%
    06:00 +1°C° 0 mm 2 mps 764 mmHg 53%
    07:00 +1°C° 0 mm 2 mps 764 mmHg 53%
    08:00 +2°C° 0 mm 2 mps 764 mmHg 50%
    09:00 +3°C° 0 mm 2 mps 764 mmHg 47%
    10:00 +3°C° 0 mm 2 mps 764 mmHg 45%
    11:00 +4°C° 0 mm 2 mps 764 mmHg 43%
    12:00 +5°C° 0 mm 2 mps 764 mmHg 42%
    13:00 +6°C° 0 mm 2 mps 763 mmHg 40%
    14:00 +5°C° 0 mm 2 mps 764 mmHg 44%
    15:00 +6°C° 0 mm 1 mps 764 mmHg 48%
    16:00 +5°C° 0 mm 1 mps 764 mmHg 53%
    17:00 +4°C° 0 mm 1 mps 764 mmHg 55%
    18:00 +4°C° 0 mm 1 mps 765 mmHg 58%
    19:00 +3°C° 0 mm 1 mps 765 mmHg 61%
    20:00 +3°C° 0 mm 1 mps 765 mmHg 61%
    21:00 +3°C° 0 mm 1 mps 765 mmHg 61%
    22:00 +2°C° 0 mm 1 mps 765 mmHg 61%
    23:00 +2°C° 0 mm 1 mps 765 mmHg 61%

    Tomorrow, 16 December, Sunday

    Time Temperature Precipitation Wind Pressure Humidity
    00:00 +2°C° 0 mm 1 mps 765 mmHg 61%
    01:00 +2°C° 0 mm 1 mps 765 mmHg 61%
    02:00 +2°C° 0 mm 1 mps 765 mmHg 60%
    03:00 +2°C° 0 mm 1 mps 764 mmHg 60%
    04:00 +2°C° 0 mm 1 mps 764 mmHg 60%
    05:00 +2°C° 0 mm 1 mps 764 mmHg 60%
    06:00 +2°C° 0 mm 1 mps 764 mmHg 59%
    07:00 +2°C° 0 mm 1 mps 764 mmHg 59%
    08:00 +2°C° 0 mm 1 mps 764 mmHg 57%
    09:00 +3°C° 0 mm 1 mps 764 mmHg 54%
    10:00 +4°C° 0 mm 1 mps 764 mmHg 52%
    11:00 +5°C° 0 mm 1 mps 763 mmHg 52%
    12:00 +5°C° 0 mm 1 mps 763 mmHg 51%
    13:00 +6°C° 0 mm 1 mps 763 mmHg 51%
    14:00 +6°C° 0 mm 1 mps 763 mmHg 55%
    15:00 +5°C° 0 mm 1 mps 763 mmHg 59%
    16:00 +5°C° 0 mm 1 mps 763 mmHg 62%
    17:00 +4°C° 0.1 mm 2 mps 763 mmHg 64%
    18:00 +4°C° 0.1 mm 2 mps 763 mmHg 66%
    19:00 +3°C° 0.1 mm 2 mps 763 mmHg 68%
    20:00 +2°C° 0.7 mm 3 mps 762 mmHg 71%
    21:00 +2°C° 0.7 mm 3 mps 762 mmHg 75%
    22:00 +2°C° 0.7 mm 3 mps 762 mmHg 78%
    23:00 +1°C° 1.5 mm 4 mps 762 mmHg 80%

    Day after tomorrow, 17 December, Monday

    Time Temperature Precipitation Wind Pressure Humidity
    00:00 +1°C° 1.5 mm 4 mps 762 mmHg 82%
    01:00 +1°C° 1.5 mm 4 mps 761 mmHg 85%
    02:00 +1°C° 1.1 mm 4 mps 761 mmHg 85%
    03:00 +2°C° 1.1 mm 3 mps 761 mmHg 86%
    04:00 +2°C° 1.1 mm 3 mps 761 mmHg 87%
    05:00 +2°C° 0.4 mm 3 mps 762 mmHg 87%
    06:00 +3°C° 0.4 mm 2 mps 762 mmHg 87%
    07:00 +3°C° 0.4 mm 2 mps 762 mmHg 87%
    08:00 +4°C° 0.1 mm 2 mps 762 mmHg 87%
    09:00 +4°C° 0.1 mm 2 mps 763 mmHg 87%
    10:00 +4°C° 0.1 mm 2 mps 763 mmHg 86%
    11:00 +5°C° 0 mm 2 mps 763 mmHg 85%
    12:00 +5°C° 0 mm 2 mps 763 mmHg 84%
    13:00 +6°C° 0 mm 2 mps 762 mmHg 83%
    14:00 +5°C° 0 mm 2 mps 763 mmHg 84%
    15:00 +5°C° 0 mm 2 mps 763 mmHg 85%
    16:00 +4°C° 0 mm 2 mps 764 mmHg 86%
    17:00 +4°C° 0 mm 2 mps 764 mmHg 86%
    18:00 +3°C° 0 mm 2 mps 765 mmHg 87%
    19:00 +3°C° 0 mm 2 mps 766 mmHg 87%
    20:00 +3°C° 0 mm 2 mps 766 mmHg 86%
    21:00 +3°C° 0 mm 2 mps 767 mmHg 85%
    22:00 +3°C° 0 mm 2 mps 768 mmHg 84%
    23:00 +2°C° 0 mm 2 mps 768 mmHg 83%

    18 December, Tuesday

    Time Temperature Precipitation Wind Pressure Humidity
    00:00 +2°C° 0 mm 2 mps 768 mmHg 83%
    01:00 +2°C° 0 mm 2 mps 769 mmHg 82%
    02:00 +2°C° 0 mm 2 mps 769 mmHg 81%
    03:00 +2°C° 0 mm 2 mps 769 mmHg 81%
    04:00 +2°C° 0 mm 2 mps 769 mmHg 81%
    05:00 +2°C° 0 mm 2 mps 770 mmHg 81%
    06:00 +2°C° 0 mm 1 mps 770 mmHg 81%
    07:00 +2°C° 0 mm 1 mps 770 mmHg 81%
    08:00 +3°C° 0 mm 1 mps 770 mmHg 79%
    09:00 +4°C° 0 mm 1 mps 770 mmHg 77%
    10:00 +5°C° 0 mm 1 mps 771 mmHg 76%
    11:00 +6°C° 0 mm 1 mps 770 mmHg 73%
    12:00 +6°C° 0 mm 1 mps 770 mmHg 70%
    13:00 +7°C° 0 mm 1 mps 769 mmHg 67%
    14:00 +7°C° 0 mm 1 mps 769 mmHg 70%
    15:00 +6°C° 0 mm 1 mps 769 mmHg 73%
    16:00 +5°C° 0 mm 0 mps 769 mmHg 76%
    17:00 +5°C° 0 mm 1 mps 769 mmHg 77%
    18:00 +5°C° 0 mm 1 mps 769 mmHg 77%
    19:00 +4°C° 0 mm 1 mps 769 mmHg 78%
    20:00 +4°C° 0 mm 1 mps 769 mmHg 78%
    21:00 +4°C° 0 mm 1 mps 769 mmHg 78%
    22:00 +4°C° 0 mm 1 mps 769 mmHg 77%
    23:00 +3°C° 0 mm 1 mps 769 mmHg 77%

    19 December, Wednesday

    Time Temperature Precipitation Wind Pressure Humidity
    00:00 +3°C° 0 mm 1 mps 768 mmHg 77%
    01:00 +3°C° 0 mm 1 mps 768 mmHg 77%
    02:00 +3°C° 0 mm 1 mps 768 mmHg 78%
    03:00 +3°C° 0 mm 1 mps 767 mmHg 78%
    04:00 +3°C° 0 mm 1 mps 767 mmHg 78%
    05:00 +3°C° 0 mm 1 mps 767 mmHg 77%
    06:00 +3°C° 0 mm 1 mps 766 mmHg 77%
    07:00 +3°C° 0 mm 1 mps 766 mmHg 76%
    08:00 +4°C° 0 mm 1 mps 766 mmHg 74%
    09:00 +4°C° 0 mm 1 mps 766 mmHg 72%
    10:00 +4°C° 0 mm 0 mps 766 mmHg 70%
    11:00 +5°C° 0 mm 0 mps 766 mmHg 69%
    12:00 +5°C° 0 mm 0 mps 765 mmHg 68%
    13:00 +6°C° 0 mm 0 mps 765 mmHg 66%
    14:00 +6°C° 0 mm 1 mps 764 mmHg 70%
    15:00 +6°C° 0 mm 1 mps 764 mmHg 74%
    16:00 +6°C° 0 mm 1 mps 764 mmHg 77%
    17:00 +5°C° 0 mm 1 mps 764 mmHg 79%
    18:00 +4°C° 0 mm 2 mps 764 mmHg 80%
    19:00 +4°C° 0 mm 2 mps 764 mmHg 81%
    20:00 +4°C° 0.1 mm 2 mps 764 mmHg 82%
    21:00 +4°C° 0.1 mm 2 mps 764 mmHg 82%
    22:00 +4°C° 0.1 mm 2 mps 764 mmHg 83%
    23:00 +4°C° 0.4 mm 2 mps 764 mmHg 83%

    20 December, Thursday

    Time Temperature Precipitation Wind Pressure Humidity
    00:00 +3°C° 0.4 mm 3 mps 764 mmHg 84%
    01:00 +3°C° 0.4 mm 3 mps 764 mmHg 84%
    02:00 +3°C° 0.3 mm 3 mps 764 mmHg 84%
    03:00 +3°C° 0.3 mm 3 mps 763 mmHg 85%
    04:00 +4°C° 0.3 mm 3 mps 763 mmHg 85%
    05:00 +5°C° 0.8 mm 2 mps 763 mmHg 85%
    06:00 +5°C° 0.8 mm 2 mps 763 mmHg 86%
    07:00 +5°C° 0.8 mm 2 mps 763 mmHg 86%
    08:00 +5°C° 0.4 mm 2 mps 764 mmHg 86%
    09:00 +5°C° 0.4 mm 2 mps 764 mmHg 86%
    10:00 +5°C° 0.4 mm 2 mps 764 mmHg 86%
    11:00 +6°C° 0.2 mm 2 mps 763 mmHg 84%
    12:00 +6°C° 0.2 mm 2 mps 763 mmHg 82%
    13:00 +7°C° 0.2 mm 2 mps 763 mmHg 80%
    14:00 +7°C° 0 mm 2 mps 763 mmHg 82%
    15:00 +6°C° 0 mm 2 mps 763 mmHg 84%
    16:00 +6°C° 0 mm 2 mps 763 mmHg 86%
    17:00 +5°C° 0 mm 2 mps 763 mmHg 87%
    18:00 +5°C° 0 mm 2 mps 763 mmHg 88%
    19:00 +4°C° 0 mm 2 mps 764 mmHg 89%
    20:00 +4°C° 0 mm 2 mps 764 mmHg 88%
    21:00 +4°C° 0 mm 2 mps 764 mmHg 87%
    22:00 +4°C° 0 mm 2 mps 764 mmHg 86%
    23:00 +4°C° 0.1 mm 2 mps 764 mmHg 86%
    Show more